Location: Unspecified
(0.0000°N, 0.0000°E)
Time: 17:09:01
(UTC+00:00)

Tiros 1 - All Passes

Search period start: 18 June 2019 00:00
Search period end: 28 June 2019 00:00
Orbit: 631 x 664 km, 48.4° (Epoch: 18 June)

Date Brightness Start Highest point End Pass type
(mag) Time Alt. Az. Time Alt. Az. Time Alt. Az.
18 Jun - 09:44:13 10° NW 09:48:50 72° SW 09:53:32 10° SSE daylight
18 Jun - 20:16:54 10° S 20:19:58 17° SE 20:23:01 10° E night (unlit)
18 Jun - 21:57:37 10° WSW 22:02:02 38° NW 22:06:25 10° NNE night (unlit)
19 Jun - 08:28:52 10° N 08:32:52 29° NE 08:36:53 10° ESE daylight
19 Jun - 10:11:20 10° W 10:14:53 21° SW 10:18:28 10° S daylight
19 Jun - 20:41:22 10° SSW 20:46:03 54° SE 20:50:40 10° NE night (unlit)
19 Jun - 22:26:16 10° WNW 22:28:06 12° NW 22:29:56 10° NNW night (unlit)
20 Jun - 08:54:14 10° NW 08:58:52 82° SW 09:03:33 10° SE daylight
20 Jun - 19:27:14 10° SSE 19:29:58 15° SE 19:32:41 10° E visible
20 Jun - 21:07:30 10° WSW 21:12:02 43° NW 21:16:32 10° NNE night (unlit)
21 Jun - 07:39:04 10° N 07:42:53 25° NE 07:46:43 10° ESE daylight
21 Jun - 09:21:09 10° WNW 09:24:54 24° SW 09:28:40 10° S daylight
21 Jun - 19:51:27 10° SSW 19:56:03 47° SE 20:00:37 10° NE visible
21 Jun - 21:35:42 10° W 21:38:06 14° NW 21:40:30 10° NNW night (unlit)
22 Jun - 08:04:16 10° NW 08:08:53 88° NE 08:13:34 10° SE daylight
22 Jun - 18:37:39 10° SSE 18:39:58 13° SE 18:42:15 10° ESE visible
22 Jun - 20:17:25 10° SW 20:22:03 50° NW 20:26:38 10° NNE visible
23 Jun - 06:49:17 10° N 06:52:54 22° NE 06:56:32 10° ESE daylight
23 Jun - 08:31:00 10° WNW 08:34:54 27° SW 08:38:52 10° S daylight
23 Jun - 19:01:32 10° SSW 19:06:03 42° SE 19:10:33 10° ENE visible
23 Jun - 20:45:15 10° W 20:48:06 16° NW 20:50:56 10° NNW visible
24 Jun - 07:14:18 10° NW 07:18:55 77° NE 07:23:34 10° SE daylight
24 Jun - 17:48:13 10° SSE 17:49:57 12° SE 17:51:40 10° ESE daylight
24 Jun - 19:27:21 10° SW 19:32:04 57° NW 19:36:43 10° NNE visible
25 Jun - 05:59:33 10° N 06:02:54 20° NE 06:06:18 10° E daylight
25 Jun - 07:40:52 10° WNW 07:44:55 30° SW 07:49:01 10° S daylight
25 Jun - 18:11:38 10° SSW 18:16:03 37° SE 18:20:27 10° ENE daylight
25 Jun - 19:54:54 10° W 19:58:06 18° NW 20:01:17 10° N visible
26 Jun - 06:24:22 10° NNW 06:28:56 67° NE 06:33:33 10° SE daylight
26 Jun - 16:59:13 10° SE 16:59:56 10° SE 17:00:37 10° ESE daylight
26 Jun - 18:37:18 10° SW 18:42:04 65° NW 18:46:47 10° NNE visible
27 Jun - 05:09:50 10° N 05:12:56 18° NE 05:16:01 10° E visible
27 Jun - 06:50:46 10° WNW 06:54:56 34° SW 06:59:10 10° SSE daylight
27 Jun - 17:21:45 10° SSW 17:26:03 33° SE 17:30:20 10° ENE daylight
27 Jun - 19:04:36 10° W 19:08:06 20° NW 19:11:34 10° N visible
